User: anonymous   Login
Location: Santa Barbara
(34.4500°N, 119.7700°W)
Time: 14:13:16
(UTC-08:00)
Language:

Cosmos 1892 Rocket - Orbit

View from above orbital plane
View from above orbital plane
View from above satellite
View from above satellite

Ground track
Ground track

The orbit data is extracted from the following two-line orbital elements,

1 18422U 87088B   15028.05611795  .00000311  00000-0  35493-4 0  4682
2 18422 082.5114 273.0137 0021048 070.5569 047.4442 14.82598617472728
Epoch (UTC): 28 January 2015 01:20:48
Eccentricity: 0.0021048
inclination: 82.5114°
perigee height: 606 km
apogee height: 636 km
right ascension of ascending node: 273.0137°
argument of perigee: 70.5569°
revolutions per day: 14.82598617
mean anomaly at epoch: 47.4442°
orbit number at epoch: 47272

The dashed part of the orbit path shows where the satellite is in the earth's shadow,  

DLR